Find STARLINK-37493

NORAD ID: 70575 Constellation: starlink operational
LEOCIRCULARRETROGRADE

实时位置

正在加载3D地球...

关于 STARLINK-37493

正在加载描述...

即将过境

Passes for default location (London). Set your location on the main map for personalized predictions.

高度历史

Loading altitude history...

两行轨道根数

1 70575C 26097R 26121.87687500 -.00412430 00000+0 -59639-3 0 1218
2 70575 97.2854 316.5373 0008392 255.8322 331.0565 16.05465843 14
Epoch: May 1, 2026 • Age: 29 hours